Time,TemperatureF,DewpointF,PressureIn,WindDirection,WindDirectionDegrees,WindSpeedMPH,WindSpeedGustMPH,Humidity,HourlyPrecipIn,Conditions,Clouds,dailyrainin,SoftwareType,DateUTC
2014-01-28 00:15:00,13.0,-2.0,30.11,SE,135,6.0,11.0,52,0.00,,,0.00,TxWx,2014-01-28 05:15:00,
2014-01-28 00:20:00,13.0,-3.0,30.11,SW,225,3.0,3.0,52,0.00,,,0.00,TxWx,2014-01-28 05:20:00,
2014-01-28 00:25:00,13.0,-3.0,30.12,West,270,3.0,4.0,51,0.00,,,0.00,TxWx,2014-01-28 05:25:00,
2014-01-28 00:30:00,13.0,-3.0,30.12,WSW,247,10.0,11.0,50,0.00,,,0.00,TxWx,2014-01-28 05:30:00,
2014-01-28 00:35:00,13.0,-4.0,30.12,SW,225,10.0,11.0,49,0.00,,,0.00,TxWx,2014-01-28 05:35:00,
2014-01-28 00:40:00,13.0,-4.0,30.12,WNW,292,5.0,5.0,48,0.00,,,0.00,TxWx,2014-01-28 05:40:00,
2014-01-28 00:46:00,13.0,-4.0,30.12,SW,225,1.0,2.0,48,0.00,,,0.00,TxWx,2014-01-28 05:46:00,
2014-01-28 00:51:00,12.0,-4.0,30.12,South,180,4.0,4.0,48,0.00,,,0.00,TxWx,2014-01-28 05:51:00,
2014-01-28 00:56:00,12.0,-5.0,30.12,WNW,292,3.0,3.0,48,0.00,,,0.00,TxWx,2014-01-28 05:56:00,
2014-01-28 01:01:00,12.0,-5.0,30.12,SSW,202,8.0,12.0,48,0.00,,,0.00,TxWx,2014-01-28 06:01:00,
2014-01-28 01:06:00,12.0,-5.0,30.12,SSW,202,5.0,7.0,47,0.00,,,0.00,TxWx,2014-01-28 06:06:00,
2014-01-28 01:11:00,12.0,-5.0,30.13,WSW,247,3.0,6.0,47,0.00,,,0.00,TxWx,2014-01-28 06:11:00,
2014-01-28 01:16:00,12.0,-5.0,30.13,SSW,202,3.0,3.0,47,0.00,,,0.00,TxWx,2014-01-28 06:16:00,
2014-01-28 01:21:00,12.0,-6.0,30.13,WSW,247,8.0,8.0,47,0.00,,,0.00,TxWx,2014-01-28 06:21:00,
2014-01-28 01:26:00,12.0,-6.0,30.13,SW,225,5.0,5.0,47,0.00,,,0.00,TxWx,2014-01-28 06:26:00,
2014-01-28 01:31:00,12.0,-6.0,30.14,SSW,202,3.0,5.0,47,0.00,,,0.00,TxWx,2014-01-28 06:31:00,
2014-01-28 01:36:00,12.0,-6.0,30.14,SSW,202,4.0,6.0,47,0.00,,,0.00,TxWx,2014-01-28 06:36:00,
2014-01-28 01:41:00,12.0,-5.0,30.14,South,180,5.0,5.0,47,0.00,,,0.00,TxWx,2014-01-28 06:41:00,
2014-01-28 01:46:00,12.0,-6.0,30.14,SSW,202,10.0,10.0,46,0.00,,,0.00,TxWx,2014-01-28 06:46:00,
2014-01-28 01:51:00,12.0,-6.0,30.14,SSW,202,2.0,3.0,46,0.00,,,0.00,TxWx,2014-01-28 06:51:00,
2014-01-28 01:56:00,12.0,-6.0,30.15,South,180,2.0,3.0,47,0.00,,,0.00,TxWx,2014-01-28 06:56:00,
2014-01-28 02:02:00,11.0,-6.0,30.15,South,180,0.0,0.0,47,0.00,,,0.00,TxWx,2014-01-28 07:02:00,
2014-01-28 02:07:00,11.0,-6.0,30.15,West,270,5.0,5.0,47,0.00,,,0.00,TxWx,2014-01-28 07:07:00,
2014-01-28 02:12:00,11.0,-6.0,30.15,SSW,202,11.0,11.0,48,0.00,,,0.00,TxWx,2014-01-28 07:12:00,
2014-01-28 02:17:00,11.0,-6.0,30.15,SSW,202,8.0,11.0,48,0.00,,,0.00,TxWx,2014-01-28 07:17:00,
2014-01-28 02:23:00,11.0,-6.0,30.16,WSW,247,3.0,3.0,47,0.00,,,0.00,TxWx,2014-01-28 07:23:00,
2014-01-28 02:28:00,11.0,-6.0,30.16,SSW,202,6.0,9.0,47,0.00,,,0.00,TxWx,2014-01-28 07:28:00,
2014-01-28 02:33:00,11.0,-6.0,30.17,South,180,6.0,6.0,47,0.00,,,0.00,TxWx,2014-01-28 07:33:00,
2014-01-28 02:38:00,11.0,-6.0,30.17,SSW,202,2.0,3.0,47,0.00,,,0.00,TxWx,2014-01-28 07:38:00,
2014-01-28 02:43:00,11.0,-6.0,30.17,SW,225,6.0,10.0,47,0.00,,,0.00,TxWx,2014-01-28 07:43:00,
2014-01-28 02:48:00,11.0,-7.0,30.17,SSE,157,0.0,0.0,47,0.00,,,0.00,TxWx,2014-01-28 07:48:00,
2014-01-28 02:53:00,11.0,-7.0,30.17,SSW,202,7.0,8.0,47,0.00,,,0.00,TxWx,2014-01-28 07:53:00,
2014-01-28 02:58:00,11.0,-7.0,30.17,South,180,0.0,0.0,47,0.00,,,0.00,TxWx,2014-01-28 07:58:00,
2014-01-28 03:03:00,11.0,-6.0,30.18,SW,225,4.0,6.0,47,0.00,,,0.00,TxWx,2014-01-28 08:03:00,
2014-01-28 03:08:00,11.0,-7.0,30.18,SSW,202,4.0,5.0,47,0.00,,,0.00,TxWx,2014-01-28 08:08:00,
2014-01-28 03:13:00,11.0,-7.0,30.18,SSW,202,9.0,11.0,47,0.00,,,0.00,TxWx,2014-01-28 08:13:00,
2014-01-28 03:18:00,11.0,-6.0,30.19,South,180,3.0,5.0,47,0.00,,,0.00,TxWx,2014-01-28 08:18:00,
2014-01-28 03:24:00,10.0,-7.0,30.19,SSW,202,9.0,11.0,47,0.00,,,0.00,TxWx,2014-01-28 08:24:00,
2014-01-28 03:29:00,10.0,-7.0,30.19,SSW,202,7.0,7.0,47,0.00,,,0.00,TxWx,2014-01-28 08:29:00,
2014-01-28 03:34:00,10.0,-7.0,30.20,South,180,2.0,5.0,47,0.00,,,0.00,TxWx,2014-01-28 08:34:00,
2014-01-28 03:39:00,10.0,-7.0,30.20,SSW,202,6.0,6.0,48,0.00,,,0.00,TxWx,2014-01-28 08:39:00,
2014-01-28 03:44:00,10.0,-7.0,30.20,SSW,202,5.0,8.0,48,0.00,,,0.00,TxWx,2014-01-28 08:44:00,
2014-01-28 03:49:00,10.0,-7.0,30.21,SW,225,2.0,2.0,47,0.00,,,0.00,TxWx,2014-01-28 08:49:00,
2014-01-28 03:54:00,10.0,-7.0,30.21,SW,225,7.0,10.0,47,0.00,,,0.00,TxWx,2014-01-28 08:54:00,
2014-01-28 03:59:00,10.0,-7.0,30.21,SSW,202,5.0,5.0,47,0.00,,,0.00,TxWx,2014-01-28 08:59:00,
2014-01-28 04:04:00,10.0,-7.0,30.21,SE,135,0.0,3.0,47,0.00,,,0.00,TxWx,2014-01-28 09:04:00,
2014-01-28 04:09:00,10.0,-7.0,30.21,SSE,157,1.0,4.0,47,0.00,,,0.00,TxWx,2014-01-28 09:09:00,
2014-01-28 04:14:00,10.0,-7.0,30.21,South,180,3.0,5.0,48,0.00,,,0.00,TxWx,2014-01-28 09:14:00,
2014-01-28 04:19:00,10.0,-7.0,30.22,South,180,6.0,8.0,47,0.00,,,0.00,TxWx,2014-01-28 09:19:00,
2014-01-28 04:24:00,10.0,-7.0,30.22,South,180,7.0,10.0,47,0.00,,,0.00,TxWx,2014-01-28 09:24:00,
2014-01-28 04:29:00,10.0,-7.0,30.22,South,180,8.0,8.0,47,0.00,,,0.00,TxWx,2014-01-28 09:29:00,
2014-01-28 04:34:00,10.0,-7.0,30.22,SSW,202,3.0,5.0,47,0.00,,,0.00,TxWx,2014-01-28 09:34:00,
2014-01-28 04:39:00,9.0,-8.0,30.23,South,180,5.0,7.0,47,0.00,,,0.00,TxWx,2014-01-28 09:39:00,
2014-01-28 04:45:00,9.0,-9.0,30.23,SW,225,1.0,3.0,46,0.00,,,0.00,TxWx,2014-01-28 09:45:00,
2014-01-28 04:50:00,9.0,-9.0,30.23,South,180,5.0,5.0,46,0.00,,,0.00,TxWx,2014-01-28 09:50:00,
2014-01-28 04:55:00,9.0,-9.0,30.24,WSW,247,0.0,0.0,46,0.00,,,0.00,TxWx,2014-01-28 09:55:00,
2014-01-28 05:00:00,9.0,-9.0,30.24,SSE,157,5.0,6.0,46,0.00,,,0.00,TxWx,2014-01-28 10:00:00,
2014-01-28 05:05:00,9.0,-9.0,30.24,SW,225,4.0,5.0,46,0.00,,,0.00,TxWx,2014-01-28 10:05:00,
2014-01-28 05:10:00,9.0,-9.0,30.24,SW,225,1.0,1.0,46,0.00,,,0.00,TxWx,2014-01-28 10:10:00,
2014-01-28 05:15:00,9.0,-9.0,30.24,SSE,157,1.0,3.0,46,0.00,,,0.00,TxWx,2014-01-28 10:15:00,
2014-01-28 05:20:00,9.0,-9.0,30.25,SSW,202,0.0,0.0,45,0.00,,,0.00,TxWx,2014-01-28 10:20:00,
2014-01-28 05:25:00,9.0,-9.0,30.25,SSW,202,1.0,3.0,45,0.00,,,0.00,TxWx,2014-01-28 10:25:00,
2014-01-28 05:30:00,9.0,-9.0,30.25,SE,135,0.0,0.0,45,0.00,,,0.00,TxWx,2014-01-28 10:30:00,
2014-01-28 05:35:00,9.0,-9.0,30.25,SSE,157,0.0,0.0,45,0.00,,,0.00,TxWx,2014-01-28 10:35:00,
2014-01-28 05:40:00,9.0,-9.0,30.26,South,180,2.0,2.0,45,0.00,,,0.00,TxWx,2014-01-28 10:40:00,
2014-01-28 05:45:00,9.0,-10.0,30.25,ESE,112,0.0,0.0,43,0.00,,,0.00,TxWx,2014-01-28 10:45:00,
2014-01-28 05:50:00,9.0,-10.0,30.26,WSW,247,0.0,0.0,43,0.00,,,0.00,TxWx,2014-01-28 10:50:00,
2014-01-28 05:55:00,9.0,-10.0,30.26,ESE,112,0.0,0.0,43,0.00,,,0.00,TxWx,2014-01-28 10:55:00,
2014-01-28 06:01:00,8.0,-11.0,30.27,South,180,0.0,0.0,43,0.00,,,0.00,TxWx,2014-01-28 11:01:00,
2014-01-28 06:06:00,8.0,-11.0,30.28,West,270,0.0,1.0,43,0.00,,,0.00,TxWx,2014-01-28 11:06:00,
2014-01-28 06:11:00,8.0,-11.0,30.28,SSW,202,0.0,0.0,42,0.00,,,0.00,TxWx,2014-01-28 11:11:00,
2014-01-28 06:16:00,8.0,-11.0,30.28,South,180,3.0,3.0,42,0.00,,,0.00,TxWx,2014-01-28 11:16:00,
2014-01-28 06:21:00,8.0,-11.0,30.28,SE,135,0.0,0.0,42,0.00,,,0.00,TxWx,2014-01-28 11:21:00,
2014-01-28 06:26:00,8.0,-11.0,30.29,South,180,3.0,6.0,42,0.00,,,0.00,TxWx,2014-01-28 11:26:00,
2014-01-28 06:31:00,8.0,-12.0,30.29,WNW,292,5.0,5.0,41,0.00,,,0.00,TxWx,2014-01-28 11:31:00,
2014-01-28 06:36:00,8.0,-12.0,30.30,South,180,2.0,3.0,41,0.00,,,0.00,TxWx,2014-01-28 11:36:00,
2014-01-28 06:41:00,8.0,-12.0,30.30,SW,225,0.0,0.0,42,0.00,,,0.00,TxWx,2014-01-28 11:41:00,
2014-01-28 06:46:00,8.0,-11.0,30.30,NNW,337,0.0,0.0,42,0.00,,,0.00,TxWx,2014-01-28 11:46:00,
2014-01-28 06:51:00,8.0,-11.0,30.31,SSE,157,0.0,0.0,42,0.00,,,0.00,TxWx,2014-01-28 11:51:00,
2014-01-28 06:56:00,8.0,-11.0,30.31,SW,225,0.0,0.0,43,0.00,,,0.00,TxWx,2014-01-28 11:56:00,
2014-01-28 07:01:00,8.0,-11.0,30.31,South,180,0.0,0.0,43,0.00,,,0.00,TxWx,2014-01-28 12:01:00,
2014-01-28 07:06:00,8.0,-11.0,30.31,South,180,0.0,1.0,43,0.00,,,0.00,TxWx,2014-01-28 12:06:00,
2014-01-28 07:11:00,8.0,-11.0,30.32,South,180,0.0,0.0,44,0.00,,,0.00,TxWx,2014-01-28 12:11:00,
2014-01-28 07:17:00,8.0,-11.0,30.32,South,180,0.0,0.0,44,0.00,,,0.00,TxWx,2014-01-28 12:17:00,
2014-01-28 07:22:00,8.0,-10.0,30.32,SSW,202,2.0,3.0,44,0.00,,,0.00,TxWx,2014-01-28 12:22:00,
2014-01-28 07:27:00,7.0,-11.0,30.32,SSW,202,6.0,7.0,44,0.00,,,0.00,TxWx,2014-01-28 12:27:00,
2014-01-28 07:32:00,7.0,-11.0,30.32,SSW,202,8.0,8.0,44,0.00,,,0.00,TxWx,2014-01-28 12:32:00,
2014-01-28 07:37:00,7.0,-11.0,30.33,SW,225,6.0,6.0,45,0.00,,,0.00,TxWx,2014-01-28 12:37:00,
2014-01-28 07:42:00,7.0,-11.0,30.32,SW,225,5.0,6.0,45,0.00,,,0.00,TxWx,2014-01-28 12:42:00,
2014-01-28 07:47:00,7.0,-11.0,30.32,SW,225,5.0,7.0,45,0.00,,,0.00,TxWx,2014-01-28 12:47:00,
2014-01-28 07:52:00,8.0,-10.0,30.32,West,270,3.0,6.0,45,0.00,,,0.00,TxWx,2014-01-28 12:52:00,
2014-01-28 07:57:00,8.0,-10.0,30.33,SW,225,5.0,6.0,45,0.00,,,0.00,TxWx,2014-01-28 12:57:00,
2014-01-28 08:02:00,8.0,-10.0,30.32,SW,225,6.0,8.0,45,0.00,,,0.00,TxWx,2014-01-28 13:02:00,
2014-01-28 08:07:00,8.0,-10.0,30.32,South,180,3.0,5.0,45,0.00,,,0.00,TxWx,2014-01-28 13:07:00,
2014-01-28 08:12:00,8.0,-10.0,30.32,SW,225,0.0,1.0,45,0.00,,,0.00,TxWx,2014-01-28 13:12:00,
2014-01-28 08:17:00,8.0,-10.0,30.32,SSW,202,3.0,6.0,45,0.00,,,0.00,TxWx,2014-01-28 13:17:00,
2014-01-28 08:22:00,8.0,-10.0,30.33,SSW,202,3.0,4.0,45,0.00,,,0.00,TxWx,2014-01-28 13:22:00,
2014-01-28 08:27:00,8.0,-10.0,30.34,West,270,4.0,5.0,45,0.00,,,0.00,TxWx,2014-01-28 13:27:00,
2014-01-28 08:33:00,8.0,-10.0,30.35,WSW,247,7.0,8.0,45,0.00,,,0.00,TxWx,2014-01-28 13:33:00,
2014-01-28 08:38:00,8.0,-10.0,30.34,South,180,8.0,8.0,45,0.00,,,0.00,TxWx,2014-01-28 13:38:00,
2014-01-28 08:43:00,8.0,-10.0,30.34,SW,225,6.0,6.0,45,0.00,,,0.00,TxWx,2014-01-28 13:43:00,
2014-01-28 08:48:00,9.0,-9.0,30.34,WSW,247,5.0,5.0,45,0.00,,,0.00,TxWx,2014-01-28 13:48:00,
2014-01-28 08:53:00,9.0,-9.0,30.34,North,0,0.0,0.0,45,0.00,,,0.00,TxWx,2014-01-28 13:53:00,
2014-01-28 08:58:00,9.0,-9.0,30.34,SSW,202,3.0,5.0,45,0.00,,,0.00,TxWx,2014-01-28 13:58:00,
2014-01-28 09:03:00,9.0,-9.0,30.34,SW,225,16.0,18.0,45,0.00,,,0.00,TxWx,2014-01-28 14:03:00,
2014-01-28 09:08:00,8.0,-10.0,30.35,South,180,6.0,12.0,45,0.00,,,0.00,TxWx,2014-01-28 14:08:00,
2014-01-28 09:13:00,9.0,-9.0,30.35,SSW,202,3.0,4.0,46,0.00,,,0.00,TxWx,2014-01-28 14:13:00,
2014-01-28 09:18:00,9.0,-9.0,30.35,South,180,2.0,4.0,45,0.00,,,0.00,TxWx,2014-01-28 14:18:00,
2014-01-28 09:23:00,9.0,-9.0,30.36,NW,315,6.0,8.0,45,0.00,,,0.00,TxWx,2014-01-28 14:23:00,
2014-01-28 09:28:00,9.0,-9.0,30.35,WNW,292,6.0,8.0,45,0.00,,,0.00,TxWx,2014-01-28 14:28:00,
2014-01-28 09:30:00,14.0,-3.0,30.30,ESE,112,5.0,5.0,48,0.00,,,0.00,TxWx,2014-01-28 14:30:00,
2014-01-28 09:31:00,14.0,-3.0,30.30,SSE,157,3.0,3.0,48,0.00,,,0.00,TxWx,2014-01-28 14:31:00,
2014-01-28 09:33:00,9.0,-9.0,30.35,WSW,247,5.0,5.0,46,0.00,,,0.00,TxWx,2014-01-28 14:33:00,
2014-01-28 09:34:00,14.0,-3.0,30.30,ESE,112,3.0,4.0,48,0.00,,,0.00,TxWx,2014-01-28 14:34:00,
2014-01-28 09:36:00,14.0,-3.0,30.30,SE,135,2.0,3.0,48,0.00,,,0.00,TxWx,2014-01-28 14:36:00,
2014-01-28 09:38:00,9.0,-9.0,30.35,NNW,337,1.0,5.0,45,0.00,,,0.00,TxWx,2014-01-28 14:38:00,
2014-01-28 09:39:00,14.0,-3.0,30.30,ESE,112,3.0,3.0,48,0.00,,,0.00,TxWx,2014-01-28 14:39:00,
2014-01-28 09:43:00,9.0,-9.0,30.35,WNW,292,3.0,3.0,46,0.00,,,0.00,TxWx,2014-01-28 14:43:00,
2014-01-28 09:44:00,14.0,-3.0,30.30,SE,135,0.0,0.0,49,0.00,,,0.00,TxWx,2014-01-28 14:44:00,
2014-01-28 09:45:00,14.0,-3.0,30.30,ESE,112,3.0,3.0,49,0.00,,,0.00,TxWx,2014-01-28 14:45:00,
2014-01-28 09:46:00,14.0,-3.0,30.30,ESE,112,1.0,1.0,49,0.00,,,0.00,TxWx,2014-01-28 14:46:00,
2014-01-28 09:47:00,14.0,-3.0,30.30,ESE,112,3.0,3.0,49,0.00,,,0.00,TxWx,2014-01-28 14:47:00,
2014-01-28 09:48:00,10.0,-8.0,30.35,NNW,337,6.0,8.0,46,0.00,,,0.00,TxWx,2014-01-28 14:48:00,
2014-01-28 09:49:00,14.0,-3.0,30.30,ESE,112,2.0,2.0,49,0.00,,,0.00,TxWx,2014-01-28 14:49:00,
2014-01-28 09:50:00,14.0,-3.0,30.30,SE,135,0.0,0.0,49,0.00,,,0.00,TxWx,2014-01-28 14:50:00,
2014-01-28 09:54:00,10.0,-8.0,30.36,WSW,247,8.0,8.0,45,0.00,,,0.00,TxWx,2014-01-28 14:54:00,
2014-01-28 09:59:00,10.0,-8.0,30.36,West,270,11.0,11.0,45,0.00,,,0.00,TxWx,2014-01-28 14:59:00,
2014-01-28 10:04:00,10.0,-8.0,30.36,West,270,1.0,5.0,46,0.00,,,0.00,TxWx,2014-01-28 15:04:00,
2014-01-28 10:09:00,10.0,-8.0,30.37,NNE,22,1.0,2.0,46,0.00,,,0.00,TxWx,2014-01-28 15:09:00,
2014-01-28 10:14:00,10.0,-8.0,30.37,West,270,10.0,10.0,45,0.00,,,0.00,TxWx,2014-01-28 15:14:00,
2014-01-28 10:19:00,10.0,-8.0,30.37,West,270,3.0,8.0,45,0.00,,,0.00,TxWx,2014-01-28 15:19:00,
2014-01-28 10:24:00,11.0,-7.0,30.38,South,180,8.0,9.0,46,0.00,,,0.00,TxWx,2014-01-28 15:24:00,
2014-01-28 10:29:00,11.0,-7.0,30.38,NW,315,3.0,4.0,45,0.00,,,0.00,TxWx,2014-01-28 15:29:00,
2014-01-28 10:34:00,11.0,-7.0,30.37,SSE,157,0.0,1.0,45,0.00,,,0.00,TxWx,2014-01-28 15:34:00,
2014-01-28 10:39:00,11.0,-7.0,30.37,SW,225,5.0,6.0,45,0.00,,,0.00,TxWx,2014-01-28 15:39:00,
2014-01-28 10:44:00,11.0,-7.0,30.37,West,270,1.0,3.0,45,0.00,,,0.00,TxWx,2014-01-28 15:44:00,
2014-01-28 10:49:00,11.0,-7.0,30.37,SSE,157,3.0,4.0,45,0.00,,,0.00,TxWx,2014-01-28 15:49:00,
2014-01-28 10:54:00,12.0,-6.0,30.37,NW,315,4.0,4.0,45,0.00,,,0.00,TxWx,2014-01-28 15:54:00,
2014-01-28 10:59:00,12.0,-7.0,30.37,South,180,3.0,3.0,44,0.00,,,0.00,TxWx,2014-01-28 15:59:00,
2014-01-28 11:05:00,12.0,-7.0,30.37,SSW,202,5.0,5.0,44,0.00,,,0.00,TxWx,2014-01-28 16:05:00,
2014-01-28 11:10:00,12.0,-7.0,30.37,NW,315,3.0,6.0,44,0.00,,,0.00,TxWx,2014-01-28 16:10:00,
2014-01-28 11:15:00,12.0,-7.0,30.37,NW,315,4.0,4.0,44,0.00,,,0.00,TxWx,2014-01-28 16:15:00,
2014-01-28 11:20:00,12.0,-7.0,30.37,WSW,247,10.0,10.0,44,0.00,,,0.00,TxWx,2014-01-28 16:20:00,
2014-01-28 11:25:00,12.0,-7.0,30.37,WSW,247,4.0,5.0,44,0.00,,,0.00,TxWx,2014-01-28 16:25:00,
2014-01-28 11:30:00,12.0,-6.0,30.37,WNW,292,5.0,7.0,45,0.00,,,0.00,TxWx,2014-01-28 16:30:00,
2014-01-28 11:35:00,12.0,-7.0,30.36,WNW,292,7.0,8.0,44,0.00,,,0.00,TxWx,2014-01-28 16:35:00,
2014-01-28 11:40:00,12.0,-7.0,30.37,SW,225,3.0,4.0,44,0.00,,,0.00,TxWx,2014-01-28 16:40:00,
2014-01-28 11:45:00,12.0,-7.0,30.36,WNW,292,0.0,0.0,44,0.00,,,0.00,TxWx,2014-01-28 16:45:00,
2014-01-28 11:50:00,12.0,-7.0,30.36,SW,225,5.0,8.0,44,0.00,,,0.00,TxWx,2014-01-28 16:50:00,
2014-01-28 11:55:00,12.0,-7.0,30.36,SSW,202,8.0,10.0,44,0.00,,,0.00,TxWx,2014-01-28 16:55:00,
2014-01-28 12:00:00,12.0,-7.0,30.35,West,270,5.0,6.0,44,0.00,,,0.00,TxWx,2014-01-28 17:00:00,
2014-01-28 12:05:00,13.0,-6.0,30.35,WSW,247,7.0,7.0,44,0.00,,,0.00,TxWx,2014-01-28 17:05:00,
2014-01-28 12:10:00,12.0,-7.0,30.35,WNW,292,1.0,2.0,44,0.00,,,0.00,TxWx,2014-01-28 17:10:00,
2014-01-28 12:15:00,12.0,-7.0,30.35,SW,225,6.0,8.0,44,0.00,,,0.00,TxWx,2014-01-28 17:15:00,
2014-01-28 12:21:00,13.0,-6.0,30.34,SW,225,5.0,5.0,44,0.00,,,0.00,TxWx,2014-01-28 17:21:00,
2014-01-28 12:26:00,13.0,-6.0,30.34,West,270,3.0,6.0,44,0.00,,,0.00,TxWx,2014-01-28 17:26:00,
2014-01-28 12:31:00,13.0,-6.0,30.34,NW,315,6.0,6.0,44,0.00,,,0.00,TxWx,2014-01-28 17:31:00,
2014-01-28 12:36:00,14.0,-5.0,30.34,WSW,247,5.0,5.0,44,0.00,,,0.00,TxWx,2014-01-28 17:36:00,
2014-01-28 12:41:00,13.0,-6.0,30.33,WNW,292,3.0,5.0,44,0.00,,,0.00,TxWx,2014-01-28 17:41:00,
2014-01-28 12:46:00,14.0,-5.0,30.33,WSW,247,5.0,7.0,44,0.00,,,0.00,TxWx,2014-01-28 17:46:00,
2014-01-28 12:51:00,15.0,-4.0,30.33,South,180,6.0,10.0,44,0.00,,,0.00,TxWx,2014-01-28 17:51:00,
2014-01-28 12:56:00,15.0,-5.0,30.33,South,180,10.0,13.0,43,0.00,,,0.00,TxWx,2014-01-28 17:56:00,
2014-01-28 13:01:00,15.0,-5.0,30.33,NNW,337,5.0,5.0,43,0.00,,,0.00,TxWx,2014-01-28 18:01:00,
2014-01-28 13:06:00,15.0,-5.0,30.33,West,270,6.0,6.0,43,0.00,,,0.00,TxWx,2014-01-28 18:06:00,
2014-01-28 13:11:00,15.0,-5.0,30.32,East,90,0.0,0.0,42,0.00,,,0.00,TxWx,2014-01-28 18:11:00,
2014-01-28 13:16:00,15.0,-5.0,30.32,SW,225,8.0,8.0,42,0.00,,,0.00,TxWx,2014-01-28 18:16:00,
2014-01-28 13:21:00,15.0,-5.0,30.32,SW,225,9.0,10.0,42,0.00,,,0.00,TxWx,2014-01-28 18:21:00,
2014-01-28 13:26:00,15.0,-5.0,30.32,SSW,202,4.0,4.0,42,0.00,,,0.00,TxWx,2014-01-28 18:26:00,
2014-01-28 13:31:00,16.0,-4.0,30.31,NW,315,3.0,4.0,42,0.00,,,0.00,TxWx,2014-01-28 18:31:00,
2014-01-28 13:37:00,16.0,-5.0,30.31,SSE,157,1.0,3.0,41,0.00,,,0.00,TxWx,2014-01-28 18:37:00,
2014-01-28 13:42:00,16.0,-5.0,30.31,WSW,247,6.0,6.0,41,0.00,,,0.00,TxWx,2014-01-28 18:42:00,
2014-01-28 13:47:00,16.0,-5.0,30.30,NW,315,0.0,3.0,41,0.00,,,0.00,TxWx,2014-01-28 18:47:00,
2014-01-28 13:52:00,16.0,-5.0,30.30,SSW,202,6.0,6.0,41,0.00,,,0.00,TxWx,2014-01-28 18:52:00,
2014-01-28 13:57:00,16.0,-5.0,30.30,West,270,1.0,2.0,41,0.00,,,0.00,TxWx,2014-01-28 18:57:00,
2014-01-28 14:01:00,12.0,1.0,30.25,North,0,0.0,0.0,63,0.00,,,0.00,TxWx,2014-01-28 19:01:00,
2014-01-28 14:02:00,16.0,-5.0,30.30,WSW,247,3.0,3.0,41,0.00,,,0.00,TxWx,2014-01-28 19:02:00,
2014-01-28 14:03:00,12.0,1.0,30.25,North,0,0.0,0.0,63,0.00,,,0.00,TxWx,2014-01-28 19:03:00,
2014-01-28 14:04:00,12.0,1.0,30.25,North,0,0.0,0.0,63,0.00,,,0.00,TxWx,2014-01-28 19:04:00,
2014-01-28 14:05:00,12.0,1.0,30.25,North,0,0.0,0.0,63,0.00,,,0.00,TxWx,2014-01-28 19:05:00,
2014-01-28 14:06:00,12.0,1.0,30.25,North,0,0.0,0.0,63,0.00,,,0.00,TxWx,2014-01-28 19:06:00,
2014-01-28 14:07:00,16.0,-5.0,30.30,South,180,5.0,5.0,40,0.00,,,0.00,TxWx,2014-01-28 19:07:00,
2014-01-28 14:08:00,12.0,1.0,30.25,NE,45,0.0,0.0,63,0.00,,,0.00,TxWx,2014-01-28 19:08:00,
2014-01-28 14:09:00,12.0,1.0,30.25,NE,45,0.0,0.0,63,0.00,,,0.00,TxWx,2014-01-28 19:09:00,
2014-01-28 14:10:00,12.0,1.0,30.25,East,90,0.0,0.0,63,0.00,,,0.00,TxWx,2014-01-28 19:10:00,
2014-01-28 14:11:00,12.0,1.0,30.25,East,90,0.0,0.0,63,0.00,,,0.00,TxWx,2014-01-28 19:11:00,
2014-01-28 14:12:00,16.0,-5.0,30.30,NE,45,1.0,5.0,40,0.00,,,0.00,TxWx,2014-01-28 19:12:00,
2014-01-28 14:13:00,12.0,1.0,30.24,ENE,67,0.0,0.0,63,0.00,,,0.00,TxWx,2014-01-28 19:13:00,
2014-01-28 14:14:00,12.0,1.0,30.24,ENE,67,0.0,0.0,63,0.00,,,0.00,TxWx,2014-01-28 19:14:00,
2014-01-28 14:15:00,12.0,1.0,30.25,ENE,67,0.0,0.0,63,0.00,,,0.00,TxWx,2014-01-28 19:15:00,
2014-01-28 14:16:00,12.0,1.0,30.25,ENE,67,0.0,0.0,63,0.00,,,0.00,TxWx,2014-01-28 19:16:00,
2014-01-28 14:17:00,16.0,-5.0,30.30,NNW,337,2.0,5.0,40,0.00,,,0.00,TxWx,2014-01-28 19:17:00,
2014-01-28 14:18:00,12.0,1.0,30.25,NE,45,0.0,0.0,63,0.00,,,0.00,TxWx,2014-01-28 19:18:00,
2014-01-28 14:19:00,12.0,1.0,30.24,NE,45,0.0,0.0,63,0.00,,,0.00,TxWx,2014-01-28 19:19:00,
2014-01-28 14:20:00,12.0,1.0,30.25,ENE,67,0.0,0.0,63,0.00,,,0.00,TxWx,2014-01-28 19:20:00,
2014-01-28 14:21:00,12.0,1.0,30.25,ENE,67,0.0,0.0,63,0.00,,,0.00,TxWx,2014-01-28 19:21:00,
2014-01-28 14:22:00,16.0,-5.0,30.29,NW,315,5.0,6.0,40,0.00,,,0.00,TxWx,2014-01-28 19:22:00,
2014-01-28 14:23:00,11.0,0.0,30.24,NE,45,0.0,0.0,64,0.00,,,0.00,TxWx,2014-01-28 19:23:00,
2014-01-28 14:24:00,11.0,0.0,30.24,ENE,67,0.0,0.0,64,0.00,,,0.00,TxWx,2014-01-28 19:24:00,
2014-01-28 14:25:00,11.0,0.0,30.24,ENE,67,0.0,0.0,64,0.00,,,0.00,TxWx,2014-01-28 19:25:00,
2014-01-28 14:26:00,11.0,0.0,30.24,ENE,67,0.0,0.0,64,0.00,,,0.00,TxWx,2014-01-28 19:26:00,
2014-01-28 14:27:00,16.0,-5.0,30.29,WSW,247,6.0,7.0,40,0.00,,,0.00,TxWx,2014-01-28 19:27:00,
2014-01-28 14:29:00,11.0,0.0,30.24,ENE,67,0.0,0.0,64,0.00,,,0.00,TxWx,2014-01-28 19:29:00,
2014-01-28 14:30:00,11.0,0.0,30.24,ENE,67,0.0,0.0,64,0.00,,,0.00,TxWx,2014-01-28 19:30:00,
2014-01-28 14:32:00,16.0,-5.0,30.29,South,180,5.0,6.0,40,0.00,,,0.00,TxWx,2014-01-28 19:32:00,
2014-01-28 14:37:00,16.0,-5.0,30.29,WNW,292,3.0,6.0,40,0.00,,,0.00,TxWx,2014-01-28 19:37:00,
2014-01-28 14:42:00,16.0,-5.0,30.29,WSW,247,4.0,4.0,40,0.00,,,0.00,TxWx,2014-01-28 19:42:00,
2014-01-28 14:47:00,16.0,-5.0,30.29,SW,225,0.0,0.0,40,0.00,,,0.00,TxWx,2014-01-28 19:47:00,
2014-01-28 14:53:00,16.0,-5.0,30.29,SW,225,5.0,6.0,40,0.00,,,0.00,TxWx,2014-01-28 19:53:00,
2014-01-28 14:58:00,16.0,-5.0,30.30,NNW,337,4.0,5.0,40,0.00,,,0.00,TxWx,2014-01-28 19:58:00,
2014-01-28 15:03:00,16.0,-5.0,30.30,South,180,3.0,6.0,40,0.00,,,0.00,TxWx,2014-01-28 20:03:00,
2014-01-28 15:08:00,16.0,-5.0,30.30,SSW,202,4.0,4.0,40,0.00,,,0.00,TxWx,2014-01-28 20:08:00,
2014-01-28 15:13:00,16.0,-5.0,30.29,West,270,4.0,5.0,40,0.00,,,0.00,TxWx,2014-01-28 20:13:00,
2014-01-28 15:18:00,16.0,-5.0,30.29,SSW,202,4.0,5.0,40,0.00,,,0.00,TxWx,2014-01-28 20:18:00,
2014-01-28 15:23:00,16.0,-5.0,30.29,SSW,202,3.0,3.0,40,0.00,,,0.00,TxWx,2014-01-28 20:23:00,
2014-01-28 15:28:00,16.0,-5.0,30.29,SSE,157,3.0,3.0,40,0.00,,,0.00,TxWx,2014-01-28 20:28:00,
2014-01-28 15:33:00,17.0,-4.0,30.29,WNW,292,0.0,0.0,40,0.00,,,0.00,TxWx,2014-01-28 20:33:00,
2014-01-28 15:38:00,17.0,-4.0,30.30,SW,225,0.0,0.0,40,0.00,,,0.00,TxWx,2014-01-28 20:38:00,
2014-01-28 15:43:00,17.0,-4.0,30.30,West,270,3.0,5.0,40,0.00,,,0.00,TxWx,2014-01-28 20:43:00,
2014-01-28 15:48:00,17.0,-4.0,30.30,WSW,247,6.0,6.0,40,0.00,,,0.00,TxWx,2014-01-28 20:48:00,
2014-01-28 15:53:00,16.0,-5.0,30.30,SW,225,0.0,0.0,40,0.00,,,0.00,TxWx,2014-01-28 20:53:00,
2014-01-28 15:58:00,17.0,-4.0,30.30,WSW,247,0.0,0.0,40,0.00,,,0.00,TxWx,2014-01-28 20:58:00,
2014-01-28 16:04:00,17.0,-4.0,30.30,SSE,157,0.0,0.0,40,0.00,,,0.00,TxWx,2014-01-28 21:04:00,
2014-01-28 16:09:00,17.0,-4.0,30.31,South,180,0.0,2.0,40,0.00,,,0.00,TxWx,2014-01-28 21:09:00,
2014-01-28 16:14:00,17.0,-4.0,30.30,WSW,247,0.0,0.0,40,0.00,,,0.00,TxWx,2014-01-28 21:14:00,
2014-01-28 16:19:00,17.0,-4.0,30.31,South,180,0.0,0.0,40,0.00,,,0.00,TxWx,2014-01-28 21:19:00,
2014-01-28 16:22:00,11.0,2.0,30.21,NNW,337,4.0,4.0,69,0.00,,,0.00,TxWx,2014-01-28 21:22:00,
2014-01-28 16:23:00,11.0,2.0,30.21,NNW,337,0.0,0.0,69,0.00,,,0.00,TxWx,2014-01-28 21:23:00,
2014-01-28 16:24:00,17.0,-4.0,30.31,South,180,0.0,0.0,40,0.00,,,0.00,TxWx,2014-01-28 21:24:00,
2014-01-28 16:25:00,11.0,2.0,30.21,NNW,337,0.0,0.0,69,0.00,,,0.00,TxWx,2014-01-28 21:25:00,
2014-01-28 16:28:00,11.0,2.0,30.20,NNE,22,0.0,0.0,69,0.00,,,0.00,TxWx,2014-01-28 21:28:00,
2014-01-28 16:29:00,17.0,-4.0,30.31,East,90,0.0,0.0,40,0.00,,,0.00,TxWx,2014-01-28 21:29:00,
2014-01-28 16:31:00,11.0,2.0,30.20,NNE,22,0.0,0.0,69,0.00,,,0.00,TxWx,2014-01-28 21:31:00,
2014-01-28 16:32:00,11.0,2.0,30.20,NE,45,0.0,0.0,69,0.00,,,0.00,TxWx,2014-01-28 21:32:00,
2014-01-28 16:33:00,11.0,2.0,30.20,NE,45,0.0,0.0,69,0.00,,,0.00,TxWx,2014-01-28 21:33:00,
2014-01-28 16:34:00,17.0,-4.0,30.31,WNW,292,0.0,0.0,40,0.00,,,0.00,TxWx,2014-01-28 21:34:00,
2014-01-28 16:35:00,11.0,2.0,30.20,NE,45,0.0,0.0,69,0.00,,,0.00,TxWx,2014-01-28 21:35:00,
2014-01-28 16:36:00,11.0,2.0,30.20,NE,45,0.0,0.0,69,0.00,,,0.00,TxWx,2014-01-28 21:36:00,
2014-01-28 16:37:00,11.0,2.0,30.20,NE,45,0.0,0.0,69,0.00,,,0.00,TxWx,2014-01-28 21:37:00,
2014-01-28 16:38:00,11.0,2.0,30.20,NE,45,0.0,0.0,69,0.00,,,0.00,TxWx,2014-01-28 21:38:00,
2014-01-28 16:39:00,17.0,-4.0,30.31,NW,315,0.0,0.0,41,0.00,,,0.00,TxWx,2014-01-28 21:39:00,
2014-01-28 16:40:00,10.0,1.0,30.20,NE,45,0.0,0.0,70,0.00,,,0.00,TxWx,2014-01-28 21:40:00,
2014-01-28 16:41:00,10.0,1.0,30.20,NE,45,0.0,0.0,70,0.00,,,0.00,TxWx,2014-01-28 21:41:00,
2014-01-28 16:42:00,10.0,1.0,30.20,NE,45,0.0,0.0,70,0.00,,,0.00,TxWx,2014-01-28 21:42:00,
2014-01-28 16:43:00,10.0,1.0,30.20,NE,45,0.0,0.0,70,0.00,,,0.00,TxWx,2014-01-28 21:43:00,
2014-01-28 16:44:00,17.0,-4.0,30.31,SSW,202,0.0,0.0,41,0.00,,,0.00,TxWx,2014-01-28 21:44:00,
2014-01-28 16:45:00,10.0,1.0,30.20,NE,45,0.0,0.0,70,0.00,,,0.00,TxWx,2014-01-28 21:45:00,
2014-01-28 16:46:00,10.0,1.0,30.20,NNE,22,0.0,0.0,70,0.00,,,0.00,TxWx,2014-01-28 21:46:00,
2014-01-28 16:47:00,10.0,1.0,30.20,North,0,0.0,0.0,70,0.00,,,0.00,TxWx,2014-01-28 21:47:00,
2014-01-28 16:49:00,17.0,-4.0,30.31,South,180,0.0,0.0,41,0.00,,,0.00,TxWx,2014-01-28 21:49:00,
2014-01-28 16:54:00,17.0,-4.0,30.31,ESE,112,0.0,0.0,41,0.00,,,0.00,TxWx,2014-01-28 21:54:00,
2014-01-28 16:59:00,17.0,-4.0,30.31,ESE,112,2.0,3.0,41,0.00,,,0.00,TxWx,2014-01-28 21:59:00,
2014-01-28 17:04:00,17.0,-3.0,30.31,SSE,157,0.0,2.0,42,0.00,,,0.00,TxWx,2014-01-28 22:04:00,
2014-01-28 17:09:00,17.0,-3.0,30.31,SSE,157,3.0,4.0,42,0.00,,,0.00,TxWx,2014-01-28 22:09:00,
2014-01-28 17:14:00,17.0,-3.0,30.31,SE,135,4.0,4.0,43,0.00,,,0.00,TxWx,2014-01-28 22:14:00,
2014-01-28 17:20:00,16.0,-4.0,30.31,SSE,157,5.0,5.0,43,0.00,,,0.00,TxWx,2014-01-28 22:20:00,
2014-01-28 17:25:00,16.0,-4.0,30.31,SE,135,4.0,4.0,43,0.00,,,0.00,TxWx,2014-01-28 22:25:00,
2014-01-28 17:30:00,16.0,-4.0,30.31,SE,135,3.0,5.0,43,0.00,,,0.00,TxWx,2014-01-28 22:30:00,
2014-01-28 17:31:00,10.0,2.0,30.19,North,0,0.0,0.0,72,0.00,,,0.00,TxWx,2014-01-28 22:31:00,
2014-01-28 17:32:00,10.0,2.0,30.19,North,0,0.0,0.0,72,0.00,,,0.00,TxWx,2014-01-28 22:32:00,
2014-01-28 17:33:00,10.0,2.0,30.19,North,0,0.0,0.0,72,0.00,,,0.00,TxWx,2014-01-28 22:33:00,
2014-01-28 17:35:00,16.0,-4.0,30.31,ESE,112,4.0,8.0,43,0.00,,,0.00,TxWx,2014-01-28 22:35:00,
2014-01-28 17:36:00,9.0,1.0,30.19,North,0,0.0,0.0,72,0.00,,,0.00,TxWx,2014-01-28 22:36:00,
2014-01-28 17:37:00,9.0,1.0,30.19,North,0,0.0,0.0,72,0.00,,,0.00,TxWx,2014-01-28 22:37:00,
2014-01-28 17:38:00,9.0,1.0,30.19,North,0,0.0,0.0,72,0.00,,,0.00,TxWx,2014-01-28 22:38:00,
2014-01-28 17:39:00,9.0,1.0,30.18,North,0,0.0,0.0,72,0.00,,,0.00,TxWx,2014-01-28 22:39:00,
2014-01-28 17:40:00,16.0,-3.0,30.30,ESE,112,3.0,3.0,44,0.00,,,0.00,TxWx,2014-01-28 22:40:00,
2014-01-28 17:41:00,9.0,1.0,30.19,North,0,0.0,0.0,73,0.00,,,0.00,TxWx,2014-01-28 22:41:00,
2014-01-28 17:42:00,9.0,1.0,30.19,North,0,0.0,0.0,73,0.00,,,0.00,TxWx,2014-01-28 22:42:00,
2014-01-28 17:44:00,9.0,1.0,30.19,North,0,0.0,0.0,73,0.00,,,0.00,TxWx,2014-01-28 22:44:00,
2014-01-28 17:45:00,16.0,-3.0,30.30,ESE,112,3.0,4.0,44,0.00,,,0.00,TxWx,2014-01-28 22:45:00,
2014-01-28 17:50:00,15.0,-4.0,30.31,East,90,4.0,6.0,44,0.00,,,0.00,TxWx,2014-01-28 22:50:00,
2014-01-28 17:55:00,15.0,-4.0,30.31,ESE,112,3.0,3.0,44,0.00,,,0.00,TxWx,2014-01-28 22:55:00,
2014-01-28 18:00:00,15.0,-4.0,30.31,ESE,112,4.0,6.0,45,0.00,,,0.00,TxWx,2014-01-28 23:00:00,
2014-01-28 18:05:00,15.0,-4.0,30.31,East,90,1.0,2.0,45,0.00,,,0.00,TxWx,2014-01-28 23:05:00,
2014-01-28 18:10:00,15.0,-4.0,30.31,ESE,112,6.0,6.0,45,0.00,,,0.00,TxWx,2014-01-28 23:10:00,
2014-01-28 18:15:00,15.0,-4.0,30.31,East,90,1.0,3.0,45,0.00,,,0.00,TxWx,2014-01-28 23:15:00,
2014-01-28 18:20:00,15.0,-3.0,30.31,ESE,112,1.0,3.0,46,0.00,,,0.00,TxWx,2014-01-28 23:20:00,
2014-01-28 18:25:00,15.0,-3.0,30.31,SE,135,2.0,3.0,46,0.00,,,0.00,TxWx,2014-01-28 23:25:00,
2014-01-28 18:30:00,15.0,-3.0,30.32,ESE,112,2.0,2.0,46,0.00,,,0.00,TxWx,2014-01-28 23:30:00,
2014-01-28 18:36:00,15.0,-3.0,30.32,ESE,112,5.0,6.0,46,0.00,,,0.00,TxWx,2014-01-28 23:36:00,
2014-01-28 18:41:00,15.0,-3.0,30.31,ESE,112,5.0,5.0,46,0.00,,,0.00,TxWx,2014-01-28 23:41:00,
2014-01-28 18:46:00,15.0,-3.0,30.31,SE,135,3.0,4.0,47,0.00,,,0.00,TxWx,2014-01-28 23:46:00,
2014-01-28 18:51:00,15.0,-3.0,30.31,East,90,0.0,0.0,47,0.00,,,0.00,TxWx,2014-01-28 23:51:00,
2014-01-28 18:56:00,15.0,-3.0,30.31,ESE,112,0.0,2.0,47,0.00,,,0.00,TxWx,2014-01-28 23:56:00,
2014-01-28 19:01:00,14.0,-4.0,30.30,ESE,112,2.0,3.0,47,0.00,,,0.00,TxWx,2014-01-29 00:01:00,
2014-01-28 19:06:00,14.0,-4.0,30.30,ESE,112,1.0,3.0,47,0.00,,,0.00,TxWx,2014-01-29 00:06:00,
2014-01-28 19:11:00,14.0,-3.0,30.31,SE,135,3.0,3.0,48,0.00,,,0.00,TxWx,2014-01-29 00:11:00,
2014-01-28 19:16:00,14.0,-3.0,30.30,ESE,112,1.0,3.0,48,0.00,,,0.00,TxWx,2014-01-29 00:16:00,
2014-01-28 19:21:00,14.0,-3.0,30.30,East,90,0.0,0.0,48,0.00,,,0.00,TxWx,2014-01-29 00:21:00,
2014-01-28 19:26:00,14.0,-3.0,30.30,SSE,157,1.0,2.0,48,0.00,,,0.00,TxWx,2014-01-29 00:26:00,
2014-01-28 19:31:00,14.0,-3.0,30.30,ESE,112,1.0,3.0,48,0.00,,,0.00,TxWx,2014-01-29 00:31:00,
2014-01-28 19:36:00,14.0,-3.0,30.30,SE,135,2.0,3.0,48,0.00,,,0.00,TxWx,2014-01-29 00:36:00,
2014-01-28 19:41:00,14.0,-3.0,30.30,ESE,112,3.0,4.0,48,0.00,,,0.00,TxWx,2014-01-29 00:41:00,
2014-01-28 19:46:00,14.0,-3.0,30.30,ESE,112,1.0,2.0,49,0.00,,,0.00,TxWx,2014-01-29 00:46:00,
2014-01-28 19:51:00,14.0,-3.0,30.30,ESE,112,0.0,0.0,49,0.00,,,0.00,TxWx,2014-01-29 00:51:00,
2014-01-28 19:57:00,14.0,-3.0,30.30,ESE,112,2.0,2.0,49,0.00,,,0.00,TxWx,2014-01-29 00:57:00,
2014-01-28 20:02:00,14.0,-3.0,30.30,ESE,112,0.0,0.0,49,0.00,,,0.00,TxWx,2014-01-29 01:02:00,
2014-01-28 20:07:00,14.0,-3.0,30.30,ESE,112,0.0,0.0,49,0.00,,,0.00,TxWx,2014-01-29 01:07:00,
2014-01-28 20:12:00,14.0,-3.0,30.30,East,90,3.0,4.0,49,0.00,,,0.00,TxWx,2014-01-29 01:12:00,
2014-01-28 20:17:00,14.0,-2.0,30.30,East,90,1.0,1.0,50,0.00,,,0.00,TxWx,2014-01-29 01:17:00,
2014-01-28 20:22:00,14.0,-2.0,30.29,NE,45,0.0,0.0,50,0.00,,,0.00,TxWx,2014-01-29 01:22:00,
2014-01-28 20:27:00,14.0,-2.0,30.29,East,90,0.0,0.0,50,0.00,,,0.00,TxWx,2014-01-29 01:27:00,
2014-01-28 20:32:00,14.0,-2.0,30.30,ESE,112,0.0,0.0,50,0.00,,,0.00,TxWx,2014-01-29 01:32:00,
2014-01-28 20:37:00,14.0,-2.0,30.30,ESE,112,0.0,0.0,50,0.00,,,0.00,TxWx,2014-01-29 01:37:00,
2014-01-28 20:42:00,14.0,-2.0,30.30,ESE,112,0.0,0.0,50,0.00,,,0.00,TxWx,2014-01-29 01:42:00,
2014-01-28 20:47:00,14.0,-2.0,30.29,ESE,112,3.0,3.0,50,0.00,,,0.00,TxWx,2014-01-29 01:47:00,
2014-01-28 20:52:00,14.0,-2.0,30.29,ENE,67,0.0,0.0,50,0.00,,,0.00,TxWx,2014-01-29 01:52:00,
2014-01-28 20:57:00,14.0,-2.0,30.29,ESE,112,3.0,3.0,50,0.00,,,0.00,TxWx,2014-01-29 01:57:00,
2014-01-28 21:02:00,14.0,-2.0,30.29,East,90,2.0,2.0,50,0.00,,,0.00,TxWx,2014-01-29 02:02:00,
2014-01-28 21:07:00,14.0,-2.0,30.29,NE,45,0.0,0.0,51,0.00,,,0.00,TxWx,2014-01-29 02:07:00,
2014-01-28 21:12:00,14.0,-2.0,30.29,East,90,0.0,0.0,51,0.00,,,0.00,TxWx,2014-01-29 02:12:00,
2014-01-28 21:17:00,14.0,-2.0,30.29,East,90,0.0,0.0,51,0.00,,,0.00,TxWx,2014-01-29 02:17:00,
2014-01-28 21:23:00,14.0,-2.0,30.28,East,90,0.0,0.0,51,0.00,,,0.00,TxWx,2014-01-29 02:23:00,
2014-01-28 21:28:00,14.0,-2.0,30.29,East,90,0.0,0.0,52,0.00,,,0.00,TxWx,2014-01-29 02:28:00,
2014-01-28 21:33:00,14.0,-1.0,30.28,East,90,0.0,0.0,52,0.00,,,0.00,TxWx,2014-01-29 02:33:00,
2014-01-28 21:38:00,14.0,-1.0,30.29,East,90,0.0,0.0,52,0.00,,,0.00,TxWx,2014-01-29 02:38:00,
2014-01-28 21:43:00,14.0,-1.0,30.28,East,90,0.0,0.0,52,0.00,,,0.00,TxWx,2014-01-29 02:43:00,
2014-01-28 21:48:00,14.0,-1.0,30.27,ESE,112,0.0,0.0,52,0.00,,,0.00,TxWx,2014-01-29 02:48:00,
2014-01-28 21:53:00,14.0,-1.0,30.27,East,90,0.0,0.0,52,0.00,,,0.00,TxWx,2014-01-29 02:53:00,
2014-01-28 21:58:00,14.0,-1.0,30.27,East,90,0.0,0.0,53,0.00,,,0.00,TxWx,2014-01-29 02:58:00,
2014-01-28 22:03:00,13.0,-2.0,30.27,East,90,3.0,3.0,52,0.00,,,0.00,TxWx,2014-01-29 03:03:00,
2014-01-28 22:08:00,13.0,-2.0,30.27,ESE,112,0.0,0.0,52,0.00,,,0.00,TxWx,2014-01-29 03:08:00,
2014-01-28 22:13:00,13.0,-2.0,30.27,East,90,0.0,0.0,53,0.00,,,0.00,TxWx,2014-01-29 03:13:00,
2014-01-28 22:18:00,13.0,-2.0,30.26,SSE,157,0.0,0.0,53,0.00,,,0.00,TxWx,2014-01-29 03:18:00,
2014-01-28 22:23:00,13.0,-2.0,30.26,SSE,157,0.0,0.0,53,0.00,,,0.00,TxWx,2014-01-29 03:23:00,
2014-01-28 22:28:00,13.0,-2.0,30.27,ESE,112,0.0,0.0,53,0.00,,,0.00,TxWx,2014-01-29 03:28:00,
2014-01-28 22:33:00,13.0,-2.0,30.26,ESE,112,0.0,0.0,54,0.00,,,0.00,TxWx,2014-01-29 03:33:00,
2014-01-28 22:38:00,13.0,-2.0,30.25,SW,225,0.0,0.0,54,0.00,,,0.00,TxWx,2014-01-29 03:38:00,
2014-01-28 22:44:00,13.0,-1.0,30.25,NE,45,0.0,0.0,55,0.00,,,0.00,TxWx,2014-01-29 03:44:00,
2014-01-28 22:49:00,13.0,-1.0,30.25,ENE,67,0.0,0.0,56,0.00,,,0.00,TxWx,2014-01-29 03:49:00,
2014-01-28 22:54:00,13.0,-1.0,30.25,NW,315,0.0,0.0,57,0.00,,,0.00,TxWx,2014-01-29 03:54:00,
2014-01-28 22:59:00,13.0,0.0,30.24,NW,315,0.0,0.0,57,0.00,,,0.00,TxWx,2014-01-29 03:59:00,
2014-01-28 23:04:00,13.0,0.0,30.24,NW,315,0.0,0.0,58,0.00,,,0.00,TxWx,2014-01-29 04:04:00,
2014-01-28 23:09:00,13.0,0.0,30.25,NW,315,0.0,0.0,58,0.00,,,0.00,TxWx,2014-01-29 04:09:00,
2014-01-28 23:14:00,12.0,-1.0,30.25,NNW,337,0.0,0.0,58,0.00,,,0.00,TxWx,2014-01-29 04:14:00,
2014-01-28 23:19:00,12.0,-1.0,30.25,NNW,337,0.0,0.0,59,0.00,,,0.00,TxWx,2014-01-29 04:19:00,
2014-01-28 23:24:00,12.0,-1.0,30.25,NNW,337,0.0,0.0,59,0.00,,,0.00,TxWx,2014-01-29 04:24:00,
2014-01-28 23:29:00,12.0,0.0,30.25,NNW,337,0.0,0.0,60,0.00,,,0.00,TxWx,2014-01-29 04:29:00,
2014-01-28 23:34:00,12.0,0.0,30.25,NNW,337,0.0,0.0,60,0.00,,,0.00,TxWx,2014-01-29 04:34:00,
2014-01-28 23:39:00,12.0,0.0,30.25,NNW,337,0.0,0.0,61,0.00,,,0.00,TxWx,2014-01-29 04:39:00,
2014-01-28 23:44:00,12.0,0.0,30.25,North,0,0.0,0.0,61,0.00,,,0.00,TxWx,2014-01-29 04:44:00,
2014-01-28 23:49:00,12.0,0.0,30.25,North,0,0.0,0.0,61,0.00,,,0.00,TxWx,2014-01-29 04:49:00,
2014-01-28 23:54:00,12.0,0.0,30.25,North,0,0.0,0.0,62,0.00,,,0.00,TxWx,2014-01-29 04:54:00,
2014-01-28 23:59:00,12.0,0.0,30.26,North,0,0.0,0.0,62,0.00,,,0.00,TxWx,2014-01-29 04:59:00,